Weather Roundup
Issued by NWS

Home | Current Version | Previous Version | Graphics & Text | Print | Product List | Glossary Off
Versions: 1 2 3 4 5 6 7 8 9 10 11 12 13 14 15 16 17 18 19 20 21 22 23 24 25 26 27 28 29 30 31 32 33 34 35 36 37 38 39 40 41 42 43 44 45 46 47 48 49 50

000
NZUS93 KARX 300310
HRRWXR

CURRENT HOURLY OBSERVATIONS ACROSS
MUCH OF THE UPPER MISSISSIPPI VALLEY
NATIONAL WEATHER SERVICE LA CROSSE WI
1000 PM CDT SUN MAR 29 2015


...SOUTHEAST MINNESOTA...


CITY           SKY/WX    TMP DP  RH WIND       PRES   REMARKS
ROCHESTER      CLEAR     39  29  67 NW13      29.95R WCI  31
ROCHESTER/MAYO FAIR      43  30  60 W14G21    29.95R
WINONA         CLEAR     46  30  53 NW9       29.93R
AUSTIN         CLEAR     43  30  61 NW9       29.98R
ALBERT LEA     CLEAR     43  32  65 W6        29.99R
DODGE CENTER   CLEAR     43  30  61 W13       29.96R
PRESTON        CLEAR     39  29  67 NW15      29.95R WCI  31
OWATONNA       CLEAR     39  28  65 W12       29.98R WCI  32
FARIBAULT      CLEAR     43  30  61 W6        29.98R
$$

...ELSEWHERE IN MINNESOTA...


CITY           SKY/WX    TMP DP  RH WIND       PRES   REMARKS
MINNEAPOLIS    CLEAR     45  27  49 W10       29.95R
INTNL FALLS    CLEAR     36  25  64 W7        29.79S WCI  30
DULUTH         PTCLDY    39  24  55 W9        29.82R WCI  33
RED WING       CLEAR     43  27  52 W5        29.93R
REDWOOD FALLS  CLEAR     44  26  49 W7        30.00R
MANKATO        CLEAR     45  28  53 W9        29.99S
WORTHINGTON    CLEAR     37  19  48 W7        30.06R WCI  32
FAIRMONT       CLEAR     43  19  39 W10       30.02R
$$

...SOUTHWEST WISCONSIN...


CITY           SKY/WX    TMP DP  RH WIND       PRES   REMARKS
LA CROSSE      CLEAR     46  29  51 W10       29.91R
PRAIRIE DU CHI CLEAR     44  27  52 W15G21    29.94R
BOSCOBEL       CLEAR     46  29  51 W5        29.92R
LONE ROCK      CLEAR     45  29  53 W12       29.89R
PLATTEVILLE    CLEAR     41  32  69 W10       29.93R
FORT MC COY    CLEAR     45  26  48 W6        29.90R
CAMP DOUGLAS   CLEAR     29  29 100 W8        29.86R WCI  21
VIROQUA        FAIR      41  30  66 W13       29.90R
WIS DELLS      CLEAR     32  30  94 SW3       29.87R
$$

...ELSEWHERE IN WISCONSIN...


CITY           SKY/WX    TMP DP  RH WIND       PRES   REMARKS
MILWAUKEE      PTCLDY    43  29  57 NW23G36   29.86R
MADISON        MOCLDY    34  30  85 CALM      29.88R
GREEN BAY      CLOUDY    39  32  76 W14       29.78R WCI  31
EAU CLAIRE     CLEAR     41  26  55 W8        29.89R
BLACK RVR FLS  FAIR      45  25  45 NW8G17    29.87R
MEDFORD        CLOUDY    35  31  83 W5        29.83R WCI  31
WAUSAU         CLOUDY    38  31  76 NW9       29.80R WCI  31
WIS RAPIDS     CLEAR     36  29  75 W5        29.86R WCI  32
MARSHFIELD     CLEAR     37  30  75 W7        29.84R WCI  32
RICE LAKE      CLEAR     41  26  54 W10       29.89R
$$

...NORTHEAST IOWA...


CITY           SKY/WX    TMP DP  RH WIND       PRES   REMARKS
DECORAH        CLEAR     41  30  65 VRB7G15   29.95R
MASON CITY     CLEAR     39  29  67 W12       30.03R WCI  32
CHARLES CITY   CLEAR     43  32  65 W10       30.01R
OELWEIN        CLEAR     43  32  65 NW14      30.00R
$$

...ELSEWHERE IN IOWA...


CITY           SKY/WX    TMP DP  RH WIND       PRES   REMARKS
DES MOINES     CLEAR     50  22  33 NW7       30.08R
IOWA CITY      CLEAR     48  29  47 NW7       30.02R
FORT DODGE     CLEAR     45  25  45 CALM      30.07R
$$

...NORTHERN ILLINOIS...


CITY           SKY/WX    TMP DP  RH WIND       PRES   REMARKS
CHICAGO-OHARE  PTCLDY    42  34  73 W10       29.89R
CHICAGO-MIDWAY PTCLDY    46  34  62 W13       29.91R
MOLINE         CLEAR     48  28  46 NW14      29.99R
ROCKFORD       CLEAR     42  33  70 W12       29.92R
PEORIA         CLEAR     49  37  63 W7        29.98R
$$

NOTE: "FAIR" INDICATES FEW OR NO CLOUDS BELOW 12,000 FEET WITH NO
SIGNIFICANT WEATHER AND/OR OBSTRUCTIONS TO VISIBILITY. WIND
SPEEDS ARE IN MILES-PER-HOUR.



USA.gov is the U.S. government's official web portal to all federal, state and local government web resources and services.